RH
100 99 87 100 100 97 99 100 97 100 100 100 100 99 99 100 100 100 100 100 99 100 100 99 100 100 100 99 98 98 98 97 96 96 96 96 96 96 96 96 96 96 97 96
100 100 100 81 94 100 100 100 100 100 100 100 100 100 100 100 100 100 100 100 99 99 100 99 100 99 99 100 99 99 97 97 96 96 97 96 96 96 96 96 95 96 96 95
100 69 71 78 100 100 100 100 100 100 100 100 99 100 100 100 100 100 100 100 100 100 99 100 100 100 100 99 98 97 98 98 97 97 97 97 96 97 96 96 96 96 96 96
100 85 77 99 100 100 100 100 100 98 100 100 100 100 100 100 100 100 100 100 100 100 100 100 100 100 100 99 100 99 98 98 98 97 98 97 98 97 95 96 97 97 97 96
86 96 94 100 100 100 100 100 99 84 81 98 100 100 100 100 100 100 100 100 100 100 100 100 100 100 99 99 100 100 99 98 98 97 97 97 97 97 96 97 96 96 96 96
100 86 88 100 93 85 89 100 94 90 79 68 79 92 100 100 100 100 100 100 100 100 100 100 100 98 97 99 100 100 100 100 93 84 97 97 96 96 92 92 86 70 76 74
93 100 100 100 93 87 90 100 98 99 91 78 70 72 78 99 100 100 100 100 100 100 100 100 99 100 100 100 100 96 93 85 90 98 51 19 31 22 17 13 8 7 5 5
96 90 84 99 93 100 100 100 96 82 80 79 76 70 58 49 82 100 100 100 100 100 100 100 99 100 100 93 84 92 100 97 85 38 41 86 72 11 7 5 5 4 4 4
100 96 89 92 93 100 100 100 89 82 76 70 61 63 68 62 49 46 95 100 100 100 100 100 100 96 99 98 91 82 54 58 94 99 93 61 21 25 41 12 9 8 6 6
100 96 94 89 100 100 100 97 94 94 87 82 74 64 55 60 64 58 43 54 98 100 100 100 100 100 96 88 70 61 63 53 48 48 50 84 95 66 24 18 14 12 10 9
100 100 93 93 100 100 98 100 100 100 100 98 87 77 69 62 56 57 60 55 41 62 100 100 100 98 98 92 89 73 61 54 50 47 47 42 37 36 41 29 22 20 17 15
100 100 100 100 100 100 100 100 100 100 96 97 99 91 84 78 71 62 54 56 60 53 36 63 100 98 92 93 94 90 85 76 68 60 55 49 46 43 37 34 32 28 25 22
100 100 100 100 100 100 100 100 100 100 100 100 98 98 96 89 86 81 72 66 55 54 58 51 36 61 96 94 93 92 93 89 85 78 73 67 57 53 49 46 42 40 36 32
100 100 97 100 100 100 100 100 100 100 100 100 100 100 100 99 97 94 88 78 73 67 55 54 57 48 35 58 93 95 92 89 91 86 86 82 76 70 65 57 54 49 46 44
99 100 100 100 100 99 99 99 94 94 96 98 100 100 100 100 100 100 100 94 87 78 69 64 54 55 55 47 35 47 91 97 93 90 90 88 84 78 77 73 69 66 59 56
100 100 100 93 87 94 98 97 100 99 99 93 92 94 94 97 99 99 99 96 91 86 82 72 69 67 54 53 55 48 36 36 83 96 95 91 87 89 85 83 78 75 72 70
100 97 75 66 90 98 100 100 100 100 100 100 100 92 90 88 89 93 95 96 92 87 79 73 73 69 68 65 57 57 56 49 36 30 71 94 94 92 92 91 89 87 87 84
100 99 66 82 97 96 97 96 93 94 98 99 98 96 95 96 100 91 94 95 91 88 81 75 73 70 69 65 68 66 61 60 56 48 38 33 60 91 94 93 92 91 94 94
100 56 49 81 86 85 91 91 92 96 96 94 93 93 92 97 100 98 94 94 86 82 79 75 75 73 70 69 62 62 71 69 67 63 57 50 42 34 42 80 96 95 95 95
87 35 44 70 78 85 90 94 98 99 98 88 86 88 95 98 96 94 94 92 86 83 76 77 88 88 76 69 61 53 54 68 72 71 68 63 58 52 45 40 45 76 98 98
71 28 34 48 70 84 90 94 91 88 90 82 82 81 82 85 87 84 80 80 89 95 76 85 96 100 87 78 52 44 40 45 58 67 69 68 66 63 60 56 49 44 54 79
79 25 25 32 54 72 85 83 78 81 82 81 82 85 86 87 82 84 82 78 88 85 78 88 98 100 76 76 75 60 43 36 36 44 55 62 65 65 64 63 60 57 54 57
100 43 22 23 33 48 63 55 71 75 73 72 73 75 79 75 75 80 82 76 81 79 74 88 92 100 78 76 87 87 87 85 80 65 46 36 40 54 59 60 61 61 63 62
100 93 29 21 23 31 33 35 45 62 68 69 69 68 70 76 72 75 77 79 83 84 82 80 82 84 82 86 84 82 80 79 77 74 73 75 73 54 39 48 55 60 68 68
100 100 87 43 21 21 24 27 32 37 44 50 59 63 66 67 70 73 76 77 75 74 76 74 72 73 72 71 71 70 69 68 66 65 66 67 69 69 68 59 44 48 63 78
78 92 100 100 84 29 19 21 25 29 31 34 38 39 42 46 51 56 61 63 67 70 71 72 72 72 72 70 68 68 67 65 64 63 63 65 65 64 63 60 57 49 51 71
24 46 83 100 100 98 60 24 20 22 25 28 30 32 36 38 40 42 44 46 47 48 49 50 49 50 49 48 46 42 40 39 38 38 40 46 49 52 52 52 54 54 55 60
Wind_Speed
19 21 31 30 30 36 32 21 13 10 13 25 21 17 15 16 14 13 10 8 6 6 5 5 5 6 7 8 9 10 11 12 13 14 15 17 19 21 22 23 25 27 26 26
3 1 4 33 29 19 27 29 22 17 12 23 18 14 13 15 14 13 11 9 6 6 5 6 5 7 8 10 11 11 12 13 14 14 15 16 17 18 20 20 21 22 23 24
3 5 6 13 33 17 9 24 31 23 24 21 17 10 14 15 14 13 11 9 7 5 5 5 5 5 7 9 11 13 14 15 16 16 16 16 16 17 18 18 18 19 19 19
1 1 5 8 29 22 6 6 23 31 25 22 18 10 12 14 13 11 10 9 8 4 3 3 1 2 3 6 8 11 12 13 15 16 17 18 18 17 17 18 17 18 18 18
3 7 6 11 36 29 15 8 13 35 28 25 17 10 12 13 13 13 11 8 5 3 3 3 3 4 6 6 6 5 8 8 9 12 13 14 16 17 18 17 16 16 17 17
8 3 3 13 38 23 11 1 23 33 30 28 24 18 16 13 11 10 10 9 6 4 2 3 4 5 6 8 8 8 9 8 8 6 7 7 8 8 9 10 11 11 12 13
17 4 3 20 38 14 9 17 38 33 29 27 24 22 21 18 13 12 11 8 6 6 4 1 3 3 4 4 6 7 7 7 6 7 8 7 8 9 11 11 12 13 15 15
13 8 6 28 33 17 20 33 35 31 28 27 24 21 19 17 16 13 12 11 9 7 7 5 3 2 3 3 3 3 5 7 8 6 4 6 7 5 7 8 10 11 12 13
9 10 21 29 25 19 26 37 33 31 29 28 25 23 21 18 16 14 14 13 12 11 10 9 8 7 7 5 6 6 6 5 4 7 9 5 4 7 7 6 7 8 9 10
21 19 31 21 18 30 27 29 30 29 29 28 27 24 22 20 18 16 15 14 14 15 14 14 12 11 12 10 10 10 11 10 10 10 9 9 9 8 7 7 8 8 9 10
23 25 35 29 29 31 29 28 28 28 28 28 27 25 24 20 20 19 18 15 15 15 16 18 17 16 16 15 15 14 14 14 14 14 14 13 13 13 13 12 11 11 11 12
32 34 33 34 33 32 32 31 30 30 29 27 28 26 24 22 21 20 20 18 17 17 17 17 18 20 20 19 18 18 18 18 18 18 17 17 17 16 16 16 15 15 15 15
33 35 35 34 33 32 33 32 31 31 29 30 26 26 24 22 22 21 21 20 19 19 19 18 18 20 22 23 22 22 22 22 22 21 21 20 21 20 20 19 18 17 17 18
37 40 39 37 37 34 32 31 29 28 28 26 25 25 25 23 21 22 22 22 21 21 21 20 20 22 21 23 24 25 25 26 26 25 24 24 24 24 24 23 22 22 21 21
39 38 39 40 38 35 32 31 28 26 23 21 21 21 22 23 22 21 22 22 22 23 23 22 22 23 24 23 24 25 26 27 28 28 28 28 28 27 27 27 26 26 26 25
42 41 41 38 36 33 32 28 27 26 24 23 22 21 20 20 21 20 21 21 21 21 22 23 22 24 25 25 24 24 25 26 28 30 31 31 30 30 30 30 30 30 29 28
48 47 44 39 36 33 31 31 29 24 24 24 26 24 24 23 20 20 20 20 20 20 22 20 20 25 26 25 24 25 26 26 27 29 30 32 33 32 32 33 33 33 31 31
45 43 40 37 36 35 32 29 26 24 24 25 26 26 24 21 19 19 16 17 18 17 20 19 19 23 22 24 24 25 25 26 28 29 28 29 32 34 35 35 35 35 34 35
45 43 40 37 35 34 31 29 28 26 25 25 23 21 17 15 17 18 17 16 16 16 17 16 17 19 21 22 23 26 25 25 26 27 28 28 28 30 32 35 36 37 37 36
44 41 39 36 34 34 33 30 29 28 26 24 21 18 15 14 14 14 15 14 15 15 13 13 13 17 19 19 21 23 25 26 26 26 26 26 27 28 28 29 31 34 36 37
43 40 38 35 33 33 33 33 30 28 26 24 22 19 16 14 13 13 12 11 12 14 11 10 10 13 17 16 19 20 22 25 26 27 26 26 26 27 27 27 29 30 31 34
43 40 38 36 35 34 35 33 31 28 26 24 22 21 18 15 13 11 10 7 8 12 10 9 9 13 18 16 16 16 17 19 21 24 25 26 26 27 27 26 27 28 29 30
42 39 36 36 37 35 33 32 31 30 28 26 25 23 19 18 15 10 6 9 7 11 5 6 10 13 20 12 12 13 14 15 15 17 20 24 27 28 28 27 27 27 26 27
40 40 37 38 37 35 33 33 32 31 30 27 26 25 21 18 17 14 11 8 7 9 9 9 10 11 15 14 15 15 15 16 17 17 17 19 19 22 26 28 27 25 25 26
38 39 42 40 39 36 34 34 33 31 29 27 25 24 21 19 17 15 13 12 11 11 10 11 12 12 13 13 14 15 16 17 18 18 19 19 20 21 22 24 26 26 25 24
37 38 39 41 39 37 37 36 35 33 30 28 26 24 23 22 20 18 16 14 13 12 11 11 11 12 14 15 15 16 17 18 19 19 19 19 20 21 22 23 24 25 25 24
37 37 37 37 39 39 39 38 35 33 32 31 28 29 26 24 22 21 19 17 16 15 14 12 11 11 11 12 13 14 14 16 17 18 19 19 20 21 22 23 23 24 25 25
Wind_Direction
105 80 53 46 40 49 51 47 46 4 17 12 1 357 359 358 355 355 353 350 349 326 294 263 235 224 223 215 205 198 191 192 190 188 192 195 195 193 195 197 199 202 205 207
82 315 21 26 35 32 43 39 34 30 18 11 12 11 18 4 0 360 355 354 352 341 312 285 261 232 222 225 217 210 203 197 192 190 189 191 194 195 194 195 196 197 196 199
87 75 66 17 10 15 26 34 27 18 358 357 14 20 9 3 360 358 2 357 352 3 330 294 262 241 223 216 215 212 210 204 199 194 193 189 193 194 193 192 193 197 198 198
83 146 55 14 14 12 354 311 8 7 3 360 359 1 353 356 1 5 2 358 347 10 1 309 179 161 189 202 199 202 196 199 197 196 195 196 194 197 196 194 191 191 192 195
61 53 127 0 0 350 346 279 332 351 357 358 355 356 351 349 351 353 359 7 352 335 68 57 73 115 114 122 137 165 174 167 179 188 186 192 194 195 198 198 196 191 190 187
29 46 32 357 357 353 359 227 333 346 348 349 352 351 346 342 339 341 338 350 0 350 98 110 125 110 106 102 102 121 130 138 140 142 158 176 191 195 205 206 204 204 198 196
20 19 10 354 345 4 24 321 333 336 338 340 343 338 337 335 327 321 319 321 332 330 337 69 133 130 129 128 128 127 123 112 117 150 137 147 178 192 200 204 205 204 201 198
357 358 5 326 335 348 326 325 326 328 330 329 330 330 329 329 324 310 300 296 299 299 300 302 284 244 205 178 161 155 167 168 155 140 151 170 173 160 172 182 191 196 196 196
342 301 325 333 320 323 302 315 322 325 326 324 323 322 321 320 317 312 300 288 283 280 274 269 261 256 255 218 227 209 210 213 202 191 186 188 192 184 191 190 185 189 192 193
351 336 340 344 326 321 319 321 323 323 322 321 318 318 315 310 306 302 298 292 282 273 268 264 256 247 244 238 232 228 221 220 217 211 217 222 216 223 222 208 203 205 207 208
341 339 338 344 334 329 328 324 320 320 320 318 315 314 311 309 302 295 289 285 283 274 265 260 258 253 245 242 237 234 234 226 225 223 221 223 223 224 225 222 221 217 218 219
332 339 332 334 330 326 322 320 317 316 315 313 311 311 308 306 301 296 289 283 277 273 269 263 257 254 251 246 242 240 238 237 232 231 229 229 230 230 231 231 225 222 222 223
335 335 332 329 327 324 319 317 313 311 310 308 305 304 303 302 298 294 290 286 281 272 264 261 262 257 252 250 246 243 241 240 239 236 235 233 234 235 236 236 237 234 232 231
342 335 334 332 330 327 321 317 313 311 309 307 303 300 296 294 293 291 289 285 281 276 272 264 257 256 254 252 249 245 243 244 243 242 239 238 236 237 238 239 239 241 240 239
343 339 335 335 332 329 328 325 321 317 311 305 302 299 297 292 287 285 284 282 281 277 272 268 263 258 254 250 250 250 246 244 244 244 244 241 240 239 239 239 239 240 241 241
344 345 342 340 337 335 334 331 328 326 321 317 310 307 302 296 290 284 280 279 276 274 273 269 266 262 258 254 250 249 250 248 245 243 243 245 244 243 242 241 240 240 241 242
348 349 348 347 344 341 337 332 326 317 312 310 306 307 306 302 292 284 282 280 276 275 273 271 267 261 259 258 255 252 250 248 247 247 244 243 243 243 243 243 243 243 243 243
351 350 350 349 347 346 345 342 339 334 323 315 308 306 302 295 291 286 283 280 278 276 272 269 266 264 262 258 254 250 248 248 249 248 245 246 245 243 243 244 243 243 242 242
354 354 354 354 352 353 351 349 348 345 338 332 326 315 313 306 289 288 286 283 281 277 272 267 263 263 261 259 255 252 251 250 250 252 252 249 248 248 246 245 245 244 244 243
357 357 357 357 357 356 357 355 354 352 349 346 343 337 323 297 292 291 289 288 285 278 267 265 264 263 259 258 256 253 250 249 249 249 250 251 250 250 249 249 248 247 246 245
360 1 0 0 3 1 0 0 359 359 358 357 357 355 346 333 319 305 293 289 287 284 278 271 267 264 257 255 254 253 251 249 248 249 250 250 250 250 250 250 250 249 248 248
2 4 2 5 8 7 6 2 4 6 4 5 5 3 359 349 341 331 317 306 283 280 281 279 266 259 266 255 262 266 263 258 253 250 248 247 248 249 248 248 249 249 249 248
5 6 5 10 13 12 6 7 9 10 10 10 11 14 11 5 12 9 332 325 309 303 331 279 259 255 273 288 273 260 261 262 260 256 253 251 248 247 247 246 246 246 248 247
7 8 11 15 15 14 10 13 15 12 12 11 11 13 15 11 9 10 6 354 332 312 313 298 285 275 277 279 277 273 268 265 263 261 259 256 255 252 249 248 248 247 246 247
6 9 15 16 16 14 14 16 18 17 14 14 13 12 11 13 13 9 5 356 347 338 323 313 306 297 290 284 279 276 273 269 266 263 259 256 253 251 251 249 247 246 245 248
7 11 14 17 16 14 15 18 16 15 17 17 16 16 17 16 13 10 7 3 355 344 335 323 311 303 297 292 287 282 277 273 268 265 261 257 252 249 247 246 244 243 241 241
8 11 13 15 16 16 17 18 16 14 15 18 16 18 18 16 15 15 13 11 10 6 359 347 338 328 318 309 302 295 287 279 273 267 262 257 252 249 246 245 245 244 243 242